Satellite: RS-38 Catalog number: 35869 Epoch time: 11335.75408568 Element set: 929 Inclination: 098.6819 deg RA of node: 028.5403 deg Eccentricity: 0.0003862 Arg of perigee: 268.6504 deg Mean anomaly: 091.4231 deg Mean motion: 14.22039766 rev/day Decay rate: 1.13e-06 rev/day^2 Epoch rev: 11441 Checksum: 317
Satellite: ARISSAT1 Catalog number: 37772 Epoch time: 11335.64790316 Element set: 368 Inclination: 051.6346 deg RA of node: 031.2379 deg Eccentricity: 0.0006304 Arg of perigee: 062.1212 deg Mean anomaly: 075.5411 deg Mean motion: 15.84508862 rev/day Decay rate: 3.01847e-03 rev/day^2 Epoch rev: 1872 Checksum: 287
Satellite: SRMSAT Catalog number: 37839 Epoch time: 11335.73787526 Element set: 41 Inclination: 019.9589 deg RA of node: 120.4167 deg Eccentricity: 0.0018817 Arg of perigee: 196.9207 deg Mean anomaly: 163.0570 deg Mean motion: 14.11998671 rev/day Decay rate: 6.19e-06 rev/day^2 Epoch rev: 716 Checksum: 322
Satellite: JUGNU Catalog number: 37841 Epoch time: 11334.74464006 Element set: 38 Inclination: 019.9697 deg RA of node: 127.4083 deg Eccentricity: 0.0012252 Arg of perigee: 162.7733 deg Mean anomaly: 197.3112 deg Mean motion: 14.10092754 rev/day Decay rate: 2.64e-06 rev/day^2 Epoch rev: 700 Checksum: 269
/EX